When you browse on this site, cookies collect data to enhance your experience and personalize the content and advertising you see.
Visit our Privacy Policy to learn more. By continuing to use the site, you agree to this use of cookies and data.
  • In Hungary
  • List of Countries
  • For 7 days
  • Water Temperature
  • Satellite Maps
  • Weather Map
  • News
  • Weather Widgets
  • user-avatar
    Login

    Hourly Weather Potochany

    Today, 18 July, Thursday

    Time Temperature Precipitation Wind Pressure Humidity
    00:00 +10°C° 0 mm 3 mps 725 mmHg 93%
    01:00 +10°C° 0 mm 3 mps 725 mmHg 93%
    02:00 +10°C° 0 mm 2 mps 725 mmHg 94%
    03:00 +9°C° 0 mm 2 mps 725 mmHg 94%
    04:00 +9°C° 0 mm 2 mps 725 mmHg 93%
    05:00 +9°C° 0 mm 2 mps 725 mmHg 93%
    06:00 +12°C° 0 mm 2 mps 726 mmHg 89%
    07:00 +12°C° 0 mm 3 mps 726 mmHg 85%
    08:00 +14°C° 0 mm 3 mps 726 mmHg 81%
    09:00 +15°C° 0 mm 4 mps 726 mmHg 76%
    10:00 +18°C° 0 mm 4 mps 726 mmHg 71%
    11:00 +19°C° 0 mm 4 mps 727 mmHg 66%
    12:00 +19°C° 0 mm 4 mps 727 mmHg 65%
    13:00 +20°C° 0 mm 4 mps 727 mmHg 64%
    14:00 +20°C° 0 mm 4 mps 727 mmHg 63%
    15:00 +20°C° 0 mm 4 mps 727 mmHg 63%
    16:00 +20°C° 0 mm 4 mps 727 mmHg 64%
    17:00 +20°C° 0 mm 4 mps 727 mmHg 65%
    18:00 +19°C° 0 mm 3 mps 727 mmHg 71%
    19:00 +17°C° 0 mm 2 mps 727 mmHg 77%
    20:00 +16°C° 0 mm 2 mps 727 mmHg 83%
    21:00 +15°C° 0 mm 1 mps 727 mmHg 84%
    22:00 +14°C° 0 mm 1 mps 727 mmHg 86%
    23:00 +13°C° 0 mm 0 mps 728 mmHg 87%

    Tomorrow, 19 July, Friday

    Time Temperature Precipitation Wind Pressure Humidity
    00:00 +12°C° 0 mm 0 mps 728 mmHg 88%
    01:00 +13°C° 0 mm 1 mps 728 mmHg 88%
    02:00 +12°C° 0 mm 1 mps 728 mmHg 88%
    03:00 +12°C° 0 mm 1 mps 728 mmHg 88%
    04:00 +11°C° 0 mm 0 mps 728 mmHg 88%
    05:00 +11°C° 0 mm 0 mps 728 mmHg 87%
    06:00 +13°C° 0 mm 0 mps 728 mmHg 83%
    07:00 +15°C° 0 mm 0 mps 729 mmHg 78%
    08:00 +19°C° 0 mm 1 mps 729 mmHg 73%
    09:00 +20°C° 0 mm 1 mps 729 mmHg 70%
    10:00 +21°C° 0 mm 1 mps 729 mmHg 66%
    11:00 +21°C° 0 mm 2 mps 729 mmHg 63%
    12:00 +23°C° 0.1 mm 2 mps 729 mmHg 61%
    13:00 +24°C° 0.1 mm 2 mps 729 mmHg 59%
    14:00 +24°C° 0.1 mm 2 mps 729 mmHg 57%
    15:00 +24°C° 0 mm 2 mps 729 mmHg 58%
    16:00 +24°C° 0 mm 2 mps 729 mmHg 59%
    17:00 +24°C° 0 mm 2 mps 729 mmHg 60%
    18:00 +21°C° 0.1 mm 2 mps 729 mmHg 66%
    19:00 +20°C° 0.1 mm 2 mps 729 mmHg 72%
    20:00 +19°C° 0.1 mm 1 mps 729 mmHg 78%
    21:00 +18°C° 0 mm 1 mps 729 mmHg 79%
    22:00 +18°C° 0 mm 1 mps 730 mmHg 80%
    23:00 +16°C° 0 mm 1 mps 730 mmHg 81%

    Day after tomorrow, 20 July, Saturday

    Time Temperature Precipitation Wind Pressure Humidity
    00:00 +15°C° 0 mm 1 mps 730 mmHg 82%
    01:00 +15°C° 0 mm 1 mps 730 mmHg 83%
    02:00 +15°C° 0 mm 1 mps 730 mmHg 84%
    03:00 +14°C° 0 mm 1 mps 730 mmHg 85%
    04:00 +14°C° 0 mm 1 mps 730 mmHg 86%
    05:00 +14°C° 0 mm 1 mps 730 mmHg 87%
    06:00 +16°C° 0 mm 1 mps 731 mmHg 83%
    07:00 +19°C° 0 mm 1 mps 731 mmHg 80%
    08:00 +21°C° 0 mm 1 mps 731 mmHg 76%
    09:00 +22°C° 0.2 mm 1 mps 731 mmHg 72%
    10:00 +23°C° 0.2 mm 2 mps 732 mmHg 68%
    11:00 +24°C° 0.2 mm 2 mps 732 mmHg 64%
    12:00 +25°C° 1.1 mm 2 mps 732 mmHg 62%
    13:00 +25°C° 1.1 mm 1 mps 732 mmHg 61%
    14:00 +26°C° 1.1 mm 1 mps 731 mmHg 60%
    15:00 +26°C° 1 mm 1 mps 731 mmHg 63%
    16:00 +25°C° 1 mm 2 mps 731 mmHg 67%
    17:00 +25°C° 1 mm 2 mps 731 mmHg 70%
    18:00 +24°C° 0.7 mm 2 mps 731 mmHg 73%
    19:00 +22°C° 0.7 mm 1 mps 731 mmHg 76%
    20:00 +21°C° 0.7 mm 1 mps 731 mmHg 80%
    21:00 +20°C° 0.1 mm 1 mps 731 mmHg 82%
    22:00 +19°C° 0.1 mm 1 mps 732 mmHg 84%
    23:00 +19°C° 0.1 mm 1 mps 732 mmHg 86%

    21 July, Sunday

    Time Temperature Precipitation Wind Pressure Humidity
    00:00 +18°C° 0 mm 1 mps 732 mmHg 86%
    01:00 +18°C° 0 mm 1 mps 732 mmHg 87%
    02:00 +18°C° 0 mm 1 mps 732 mmHg 88%
    03:00 +18°C° 0 mm 1 mps 731 mmHg 88%
    04:00 +16°C° 0 mm 1 mps 731 mmHg 89%
    05:00 +16°C° 0 mm 1 mps 731 mmHg 89%
    06:00 +19°C° 0 mm 1 mps 731 mmHg 87%
    07:00 +19°C° 0 mm 2 mps 732 mmHg 84%
    08:00 +21°C° 0 mm 2 mps 732 mmHg 81%
    09:00 +23°C° 0 mm 2 mps 732 mmHg 76%
    10:00 +25°C° 0 mm 2 mps 732 mmHg 71%
    11:00 +26°C° 0 mm 2 mps 732 mmHg 66%
    12:00 +27°C° 0.4 mm 2 mps 732 mmHg 64%
    13:00 +28°C° 0.4 mm 2 mps 732 mmHg 62%
    14:00 +28°C° 0.4 mm 2 mps 731 mmHg 60%
    15:00 +28°C° 1.5 mm 2 mps 731 mmHg 63%
    16:00 +28°C° 1.5 mm 2 mps 731 mmHg 65%
    17:00 +28°C° 1.5 mm 2 mps 731 mmHg 67%
    18:00 +26°C° 0.3 mm 2 mps 731 mmHg 71%
    19:00 +25°C° 0.3 mm 2 mps 731 mmHg 75%
    20:00 +23°C° 0.3 mm 2 mps 730 mmHg 79%
    21:00 +21°C° 0.8 mm 2 mps 731 mmHg 84%
    22:00 +20°C° 0.8 mm 2 mps 731 mmHg 89%
    23:00 +19°C° 0.8 mm 2 mps 731 mmHg 94%

    22 July, Monday

    Time Temperature Precipitation Wind Pressure Humidity
    00:00 +18°C° 0.1 mm 2 mps 731 mmHg 93%
    01:00 +18°C° 0.1 mm 2 mps 731 mmHg 93%
    02:00 +17°C° 0.1 mm 3 mps 731 mmHg 93%
    03:00 +17°C° 0 mm 3 mps 731 mmHg 93%
    04:00 +17°C° 0 mm 3 mps 731 mmHg 94%
    05:00 +17°C° 0 mm 3 mps 731 mmHg 95%
    06:00 +18°C° 0 mm 4 mps 731 mmHg 92%
    07:00 +19°C° 0 mm 4 mps 731 mmHg 89%
    08:00 +21°C° 0 mm 5 mps 732 mmHg 87%
    09:00 +22°C° 0.1 mm 5 mps 732 mmHg 82%
    10:00 +23°C° 0.1 mm 5 mps 732 mmHg 78%
    11:00 +25°C° 0.1 mm 5 mps 732 mmHg 73%
    12:00 +25°C° 0.1 mm 5 mps 732 mmHg 72%
    13:00 +25°C° 0.1 mm 5 mps 732 mmHg 72%
    14:00 +25°C° 0.1 mm 5 mps 732 mmHg 71%
    15:00 +25°C° 0.1 mm 5 mps 732 mmHg 71%
    16:00 +25°C° 0.1 mm 5 mps 732 mmHg 71%
    17:00 +25°C° 0.1 mm 4 mps 732 mmHg 71%
    18:00 +22°C° 0.3 mm 4 mps 732 mmHg 77%
    19:00 +21°C° 0.3 mm 3 mps 732 mmHg 83%
    20:00 +20°C° 0.3 mm 2 mps 732 mmHg 89%
    21:00 +19°C° 0.1 mm 2 mps 732 mmHg 90%
    22:00 +18°C° 0.1 mm 2 mps 732 mmHg 92%
    23:00 +17°C° 0.1 mm 2 mps 732 mmHg 93%

    23 July, Tuesday

    Time Temperature Precipitation Wind Pressure Humidity
    00:00 +17°C° 0.1 mm 2 mps 731 mmHg 94%
    01:00 +17°C° 0.1 mm 3 mps 731 mmHg 95%
    02:00 +16°C° 0.1 mm 3 mps 731 mmHg 96%
    03:00 +16°C° 0.1 mm 3 mps 731 mmHg 97%
    04:00 +16°C° 0.1 mm 3 mps 731 mmHg 97%
    05:00 +16°C° 0.1 mm 3 mps 731 mmHg 98%
    06:00 +15°C° 0 mm 4 mps 731 mmHg 94%
    07:00 +17°C° 0 mm 4 mps 731 mmHg 90%
    08:00 +17°C° 0 mm 5 mps 731 mmHg 87%
    09:00 +19°C° 0 mm 5 mps 731 mmHg 80%
    10:00 +19°C° 0 mm 5 mps 731 mmHg 73%
    11:00 +20°C° 0 mm 6 mps 731 mmHg 67%
    12:00 +21°C° 0 mm 6 mps 731 mmHg 65%
    13:00 +21°C° 0 mm 6 mps 731 mmHg 64%
    14:00 +22°C° 0 mm 6 mps 731 mmHg 63%
    15:00 +22°C° 0 mm 6 mps 731 mmHg 65%
    16:00 +22°C° 0 mm 6 mps 731 mmHg 66%
    17:00 +22°C° 0 mm 5 mps 730 mmHg 68%
    18:00 +20°C° 0 mm 4 mps 730 mmHg 74%
    19:00 +19°C° 0 mm 4 mps 730 mmHg 80%
    20:00 +18°C° 0 mm 3 mps 730 mmHg 85%
    21:00 +17°C° 0 mm 3 mps 730 mmHg 87%
    22:00 +17°C° 0 mm 2 mps 730 mmHg 89%
    23:00 +16°C° 0 mm 2 mps 730 mmHg 91%
    Show more